Wind_Speed
11 12 12 12 12 12 11 11 10 9 9 8 7 7 8 8 9 10 11 12 12 13 13 14 15 15 15 15 15 16 15 15 14 15 16 16 18 20 21 21 21 21 20
11 11 12 12 12 12 11 10 10 9 8 7 7 7 7 8 9 10 11 12 13 14 14 14 14 15 16 16 16 16 16 15 15 14 15 15 17 19 22 22 22 21 20
11 11 12 12 12 12 11 10 9 9 8 7 7 6 6 7 8 9 11 12 12 14 14 14 15 15 15 16 17 17 16 16 15 15 14 16 18 18 20 22 22 21 20
11 11 11 12 12 12 11 10 9 8 8 7 7 6 6 7 7 9 10 11 12 13 14 15 15 15 15 16 17 17 17 17 17 16 16 16 18 18 20 20 21 21 20
11 11 11 12 12 12 11 10 9 8 8 7 7 6 6 6 7 8 9 10 10 12 13 15 15 15 16 16 16 17 17 17 18 18 17 18 19 19 20 20 21 21 21
10 11 11 11 11 11 11 10 10 9 8 7 7 6 5 5 6 7 8 9 10 11 13 14 15 15 15 16 16 14 15 17 18 18 19 19 20 20 21 21 22 22 21
10 11 11 11 11 11 11 11 10 10 9 7 7 6 5 5 5 6 6 8 9 10 12 13 15 16 15 15 16 14 15 17 18 19 20 20 20 20 22 22 22 22 22
10 10 11 11 11 11 11 11 11 10 10 8 7 6 6 5 5 5 6 7 8 10 11 12 14 15 16 16 15 15 15 16 18 19 20 21 21 21 22 23 22 22 22
10 10 11 10 10 11 12 12 11 11 10 9 8 7 6 6 5 5 5 6 8 9 10 12 13 15 16 16 16 16 17 18 17 19 20 21 21 21 22 23 23 23 22
10 10 11 11 11 12 12 12 12 11 10 9 9 8 7 6 5 5 5 5 7 9 10 11 13 15 17 17 16 16 17 18 18 18 18 19 20 20 21 24 23 23 22
9 10 11 11 12 12 12 13 12 12 11 10 9 8 7 6 5 4 4 4 5 7 9 11 12 14 16 17 17 17 17 17 18 19 20 20 20 20 20 22 22 23 23
9 10 11 11 12 12 12 13 13 12 12 11 10 9 8 7 6 5 3 3 4 6 7 9 11 13 14 16 17 18 18 18 18 18 20 20 20 21 21 22 23 23 24
8 10 10 11 11 12 12 12 13 12 12 12 11 10 10 8 6 5 4 3 3 4 6 7 9 12 14 15 17 18 18 18 18 18 19 21 22 21 22 23 23 24 23
8 9 10 11 11 12 12 12 13 12 12 12 11 11 10 9 8 6 5 4 4 4 5 7 8 11 13 15 16 17 18 19 19 20 20 21 22 23 23 24 24 24 24
8 9 10 10 11 12 12 12 12 12 12 12 11 11 11 9 8 7 6 6 5 5 6 6 8 10 13 14 16 17 18 19 20 20 21 22 22 23 24 25 24 24 25
8 9 10 10 11 11 12 12 12 12 12 12 12 12 11 10 9 8 7 6 6 5 6 7 8 10 12 14 16 17 18 19 20 21 22 22 23 24 25 25 25 25 26
8 9 9 10 11 11 11 11 11 12 12 12 11 12 12 11 10 9 8 7 7 7 7 7 9 10 11 13 16 17 19 20 21 22 23 24 24 24 26 26 26 27 28
8 9 9 9 10 11 11 11 12 12 12 12 12 12 12 12 11 11 10 10 9 9 8 9 9 10 12 13 15 17 19 20 21 23 24 25 25 26 26 27 27 27 28
9 9 9 10 10 11 11 11 12 12 13 13 12 13 13 13 13 12 12 11 11 11 11 11 11 11 12 14 15 17 19 20 22 23 24 25 26 26 27 28 29 29 29
10 10 10 11 11 11 12 12 13 13 14 14 14 14 14 14 14 14 14 14 13 13 13 13 13 13 14 15 16 18 19 21 22 23 24 25 27 27 28 29 30 31 31
11 11 12 12 12 13 13 14 14 14 15 16 16 16 16 16 16 16 16 16 16 16 16 16 16 16 17 18 19 20 21 22 24 25 26 27 28 29 30 31 32 32 32
13 14 14 14 15 15 15 16 16 17 17 18 18 18 18 18 18 18 18 19 19 19 19 20 20 20 20 21 22 23 23 24 25 27 29 30 31 31 32 33 33 34 35
15 16 16 17 17 18 18 19 19 20 20 21 21 21 21 21 21 21 22 22 22 22 23 23 23 23 24 24 25 26 27 27 28 29 30 32 33 34 34 35 35 35 36
18 18 19 19 20 21 22 22 22 23 23 23 23 23 24 24 24 24 25 25 26 26 26 26 27 28 29 29 29 30 31 31 32 32 34 34 35 36 37 37 37 38 39
21 21 22 22 23 24 25 25 25 25 26 26 26 27 27 27 27 28 28 28 29 29 30 31 31 32 32 33 33 33 34 35 35 35 36 37 38 39 39 39 39 40 41
23 24 24 25 26 27 28 28 28 28 28 28 29 30 30 30 31 31 32 32 33 33 34 34 35 36 36 36 37 37 37 38 38 38 39 40 41 42 42 42 43 43 43
Wind_Direction
335 334 332 332 331 331 330 329 325 321 313 303 292 282 274 266 257 248 242 239 236 231 226 224 223 225 223 218 217 218 218 220 222 224 221 219 212 209 202 199 199 199 196
335 335 334 335 335 334 333 331 329 327 320 311 300 286 275 269 259 249 244 239 237 231 226 225 225 224 223 220 218 218 219 219 219 218 216 209 205 203 199 199 200 198 195
336 338 338 339 340 339 337 336 333 333 328 317 306 296 281 271 261 251 246 241 237 232 228 227 225 224 223 222 220 219 218 219 214 211 206 202 198 197 196 197 195 195 196
340 341 342 343 344 344 342 340 337 335 332 323 311 299 287 276 265 255 247 241 236 230 227 225 225 224 222 221 222 219 217 216 211 209 206 200 195 193 194 193 193 196 198
343 344 344 346 347 348 348 346 343 338 335 331 322 308 292 278 270 261 250 241 234 229 226 226 225 223 221 220 220 219 218 212 209 207 205 201 197 195 197 196 196 198 200
345 346 348 349 350 351 351 350 349 345 341 339 333 324 307 288 277 267 251 240 235 231 227 227 226 223 221 218 217 216 212 210 206 206 203 202 200 201 203 202 201 202 204
347 349 351 352 353 354 354 354 354 352 347 342 339 332 325 311 290 275 255 241 236 233 229 226 223 222 220 218 216 215 211 209 208 208 208 206 204 205 204 205 206 207 210
350 353 355 355 356 357 358 358 357 357 354 347 341 336 327 320 303 275 257 247 238 232 229 225 220 219 219 218 217 217 213 212 212 211 211 210 209 209 208 208 208 210 211
353 357 1 1 360 0 1 0 0 359 357 354 347 341 332 321 312 286 263 251 241 233 229 226 221 219 218 216 217 216 216 214 213 212 212 210 210 212 213 211 210 213 214
357 359 1 2 2 2 2 3 4 2 360 359 356 350 342 331 323 308 280 259 245 236 229 226 221 217 216 215 215 216 215 213 214 213 212 211 212 213 213 213 212 214 216
356 359 1 3 4 4 4 5 6 5 3 3 2 359 355 348 338 332 307 268 251 241 234 231 222 218 215 215 215 216 218 216 215 216 216 214 214 213 213 214 215 218 221
353 354 358 1 4 5 6 7 8 8 7 6 7 5 4 1 353 348 335 288 261 250 242 236 226 222 218 217 217 217 219 220 220 218 217 217 218 218 216 218 221 222 223
349 353 356 358 1 4 6 7 7 7 6 7 7 5 4 4 0 356 355 332 292 266 251 244 234 225 221 220 220 220 221 222 223 223 222 222 223 223 223 223 224 226 228
344 348 351 355 359 2 4 6 6 5 5 5 3 3 3 3 2 355 351 337 313 282 264 252 240 231 227 225 225 225 225 226 226 226 226 226 227 228 227 228 229 230 230
338 344 347 350 353 355 357 360 4 5 5 3 2 2 1 1 360 355 351 341 322 300 284 263 248 238 233 230 230 230 230 230 230 230 230 230 231 232 231 231 233 233 232
335 340 343 345 347 350 355 358 0 2 1 0 1 1 2 1 357 354 349 341 330 314 293 275 260 249 243 236 235 235 235 234 233 233 234 235 235 235 234 234 235 235 235
332 335 338 340 343 346 350 352 353 355 355 354 355 356 358 356 352 349 344 334 324 313 300 285 270 259 252 245 241 239 239 237 236 236 237 237 238 238 238 239 238 239 238
323 328 330 333 337 340 342 344 345 346 347 348 347 347 347 347 344 340 335 328 319 311 302 292 281 272 263 255 250 246 242 241 240 242 241 240 241 242 242 243 243 241 241
316 321 325 327 330 333 335 336 336 338 340 340 340 340 339 338 337 334 330 324 318 311 304 296 286 279 271 263 258 255 250 247 246 246 245 244 244 245 245 245 245 244 244
309 314 317 320 323 324 326 328 329 329 329 330 331 331 331 331 329 327 325 321 315 310 303 299 292 284 278 270 263 259 255 253 251 250 249 247 247 248 248 247 246 246 246
303 305 308 311 315 317 317 319 320 320 320 321 321 321 321 322 321 319 317 316 313 308 303 299 294 290 282 276 270 264 261 258 255 253 253 252 251 250 251 250 249 249 249
297 300 303 304 307 309 310 310 310 311 313 313 312 312 313 313 313 311 309 308 306 303 301 298 295 293 286 279 274 269 265 262 260 257 256 255 255 254 253 253 253 252 251
295 296 297 298 301 303 304 304 303 303 305 306 306 305 305 306 306 306 304 302 301 299 298 296 294 292 287 281 277 273 268 265 262 261 259 258 257 256 255 254 255 254 253
294 294 295 295 298 300 301 301 301 300 300 300 300 300 300 300 301 301 301 300 300 298 296 294 293 291 289 283 279 276 272 269 266 264 261 260 259 259 258 257 257 257 257
292 293 294 294 295 297 299 299 299 298 298 298 297 297 297 298 298 298 298 298 297 297 296 294 292 291 290 286 282 278 275 272 269 266 264 262 260 259 258 258 257 257 257
291 291 292 293 295 295 296 297 297 297 296 296 296 295 296 296 296 296 296 296 295 294 294 294 293 291 289 286 283 280 277 274 271 268 266 264 263 261 259 258 258 257 257
Height
5862 5861 5858 5856 5854 5852 5850 5848 5847 5846 5845 5844 5844 5844 5844 5845 5846 5847 5849 5850 5852 5854 5856 5858 5860 5862 5864 5866 5868 5870 5872 5873 5874 5874 5874 5873 5876 5880 5884 5889 5893 5897 5901
5861 5860 5857 5855 5853 5851 5849 5847 5845 5844 5843 5842 5842 5842 5842 5843 5844 5845 5846 5847 5849 5851 5853 5855 5857 5859 5861 5864 5866 5868 5869 5870 5872 5872 5871 5871 5873 5876 5881 5886 5891 5895 5899
5860 5858 5856 5854 5852 5849 5847 5845 5844 5842 5841 5841 5840 5840 5840 5840 5841 5842 5843 5845 5846 5848 5851 5852 5854 5856 5859 5861 5863 5865 5867 5868 5870 5871 5871 5871 5873 5876 5880 5884 5887 5893 5898
5859 5857 5855 5853 5851 5848 5846 5844 5843 5841 5840 5839 5838 5838 5838 5838 5839 5840 5841 5842 5844 5845 5848 5850 5852 5854 5856 5858 5860 5862 5863 5865 5867 5870 5872 5872 5874 5877 5880 5883 5887 5892 5896
5859 5857 5854 5852 5850 5847 5845 5843 5842 5840 5839 5838 5837 5836 5836 5836 5837 5837 5838 5839 5841 5843 5845 5847 5849 5851 5853 5855 5857 5858 5859 5861 5865 5868 5870 5872 5874 5877 5881 5884 5888 5892 5895
5858 5856 5853 5851 5849 5847 5845 5843 5841 5839 5838 5836 5836 5835 5835 5835 5835 5835 5836 5837 5839 5840 5842 5844 5846 5849 5851 5853 5855 5855 5855 5859 5862 5866 5869 5871 5874 5877 5880 5883 5887 5890 5894
5857 5855 5853 5851 5848 5846 5844 5842 5840 5838 5837 5836 5835 5834 5834 5833 5833 5833 5834 5835 5836 5838 5840 5842 5844 5846 5849 5851 5852 5854 5855 5858 5861 5864 5867 5870 5872 5875 5879 5882 5885 5888 5891
5857 5855 5852 5850 5848 5846 5844 5842 5840 5838 5836 5835 5834 5833 5833 5833 5832 5832 5832 5833 5834 5835 5837 5839 5841 5844 5846 5848 5850 5852 5855 5857 5859 5862 5865 5868 5871 5874 5877 5880 5883 5886 5889
5856 5854 5852 5850 5848 5846 5844 5842 5839 5838 5836 5834 5833 5833 5832 5831 5831 5831 5831 5831 5832 5833 5835 5837 5839 5841 5843 5846 5848 5850 5853 5855 5858 5860 5863 5866 5868 5871 5873 5877 5880 5884 5887
5856 5854 5852 5850 5849 5846 5844 5842 5839 5837 5836 5834 5833 5832 5831 5830 5829 5829 5829 5830 5830 5831 5833 5834 5836 5838 5841 5843 5846 5848 5850 5853 5855 5858 5861 5863 5865 5867 5869 5873 5878 5882 5885
5856 5854 5852 5850 5849 5847 5844 5842 5840 5838 5836 5834 5832 5831 5830 5829 5828 5828 5828 5829 5829 5830 5831 5832 5834 5836 5838 5841 5844 5846 5849 5851 5853 5856 5858 5861 5863 5865 5867 5871 5875 5879 5882
5856 5854 5852 5851 5849 5847 5845 5842 5840 5838 5836 5834 5833 5831 5830 5829 5828 5828 5827 5827 5828 5828 5829 5831 5832 5834 5836 5839 5841 5844 5846 5849 5851 5853 5856 5859 5861 5864 5866 5869 5873 5876 5879
5856 5854 5852 5851 5849 5847 5845 5843 5840 5838 5836 5835 5833 5831 5830 5829 5828 5827 5827 5827 5827 5827 5828 5829 5831 5832 5834 5837 5839 5841 5844 5846 5849 5851 5854 5856 5858 5861 5864 5866 5869 5872 5875
5855 5854 5852 5851 5849 5847 5845 5843 5841 5839 5837 5835 5833 5832 5830 5829 5828 5827 5827 5826 5826 5827 5827 5828 5829 5830 5832 5834 5837 5839 5841 5843 5846 5848 5851 5853 5855 5858 5860 5863 5865 5868 5871
5854 5853 5852 5850 5849 5847 5845 5843 5841 5839 5837 5835 5833 5832 5830 5829 5828 5827 5826 5826 5826 5826 5826 5826 5827 5828 5830 5832 5834 5836 5838 5840 5842 5845 5847 5849 5852 5854 5856 5859 5861 5864 5866
5854 5852 5851 5850 5848 5846 5845 5843 5841 5839 5837 5836 5834 5832 5831 5829 5828 5827 5826 5825 5825 5825 5824 5825 5825 5826 5827 5829 5831 5832 5834 5836 5838 5841 5843 5845 5848 5850 5852 5854 5857 5859 5861
5852 5851 5850 5849 5847 5846 5844 5842 5841 5839 5837 5836 5834 5832 5831 5829 5828 5827 5826 5825 5824 5824 5824 5823 5823 5824 5825 5826 5827 5829 5831 5832 5834 5836 5839 5841 5843 5845 5848 5849 5852 5854 5856
5851 5850 5849 5848 5846 5845 5843 5842 5840 5839 5837 5835 5833 5832 5830 5829 5827 5826 5825 5824 5823 5823 5822 5822 5821 5821 5822 5823 5824 5825 5827 5828 5830 5832 5834 5836 5838 5840 5842 5844 5846 5848 5850
5849 5848 5847 5846 5845 5844 5842 5841 5839 5838 5836 5834 5833 5831 5829 5828 5826 5825 5823 5822 5821 5821 5820 5819 5819 5818 5819 5819 5820 5821 5822 5824 5825 5827 5828 5830 5832 5834 5836 5838 5840 5841 5843
5847 5846 5845 5844 5843 5842 5840 5839 5837 5836 5834 5833 5831 5829 5828 5826 5824 5823 5822 5820 5819 5818 5817 5816 5816 5815 5815 5815 5816 5817 5817 5818 5820 5821 5823 5824 5826 5827 5829 5831 5833 5834 5836
5844 5844 5843 5842 5841 5839 5838 5836 5835 5834 5832 5830 5829 5827 5825 5824 5822 5820 5819 5817 5816 5815 5814 5813 5812 5812 5811 5811 5811 5812 5812 5813 5814 5815 5816 5818 5819 5821 5822 5824 5825 5827 5828
5841 5840 5839 5838 5837 5836 5834 5833 5832 5830 5829 5827 5825 5824 5822 5820 5819 5817 5815 5814 5812 5811 5810 5809 5808 5807 5806 5806 5805 5805 5806 5806 5807 5808 5809 5810 5811 5813 5814 5815 5817 5818 5820
5837 5836 5835 5834 5833 5832 5830 5829 5827 5826 5824 5822 5821 5819 5817 5816 5814 5812 5810 5809 5807 5806 5804 5803 5802 5801 5800 5799 5798 5798 5798 5798 5799 5799 5800 5801 5802 5803 5805 5806 5807 5808 5810
5832 5831 5830 5829 5828 5826 5825 5823 5822 5820 5819 5817 5815 5813 5812 5810 5808 5806 5805 5803 5801 5799 5797 5796 5795 5793 5791 5790 5789 5789 5788 5789 5789 5789 5790 5791 5792 5793 5794 5795 5796 5798 5799
5827 5826 5825 5823 5822 5820 5818 5817 5815 5813 5812 5810 5808 5807 5805 5803 5801 5799 5798 5796 5794 5791 5789 5787 5785 5783 5781 5779 5778 5777 5777 5777 5778 5778 5778 5779 5780 5781 5783 5784 5785 5786 5787
5820 5819 5818 5816 5815 5813 5811 5809 5807 5806 5804 5802 5800 5798 5797 5795 5793 5791 5789 5787 5785 5782 5780 5777 5775 5772 5770 5768 5766 5765 5764 5764 5764 5765 5766 5766 5767 5767 5770 5772 5773 5774 5775